Regional Weather Roundup
Issued by NWS Albany, NY

Home | Current Version | Previous Version | Text Only | Print | Product List | Glossary On
Versions: 1 2 3 4 5 6 7 8 9 10 11 12 13 14 15 16 17 18 19 20 21 22 23 24 25 26 27 28 29 30 31 32 33 34 35 36 37 38 39 40 41 42 43 44 45 46 47 48 49 50
000
ASUS41 KALY 271510
RWRALY

NEW YORK STATE HOURLY WEATHER ROUNDUP
NATIONAL WEATHER SERVICE ALBANY NY
1000 AM EST TUE JAN 27 2015

NOTE: "FAIR" INDICATES FEW OR NO CLOUDS BELOW 12,000 FEET WITH NO
SIGNIFICANT WEATHER AND/OR NO OBSTRUCTIONS TO VISIBILITY.

NYZ032-033-038>043-046>054-057>066-NYZ062>081-271600-
EAST


CITY           SKY/WX    TMP DP  RH WIND       PRES   REMARKS
ALBANY         LGT SNOW  13   6  74 N10       29.85R WCI   0
GLENS FALLS    CLOUDY    14  -1  51 NE10      29.84F WCI   1
POUGHKEEPSIE   LGT SNOW  18  10  71 N21       29.76F VSB 1   WCI   1
NEWBURGH       LGT SNOW  18  14  86 N12       29.74S FOG     WCI   5
MONTGOMERY     LGT SNOW  20  11  68 NE6       29.73R WCI  12
WHITE PLAINS   LGT SNOW  18  12  77 NW29G37   29.64S VSB 1   WCI  -1
ISLIP          SNOW      21  18  88 NW25G37   29.59R VSB 1/4 WCI   4
NEW YORK CITY  FLURRIES  23  16  74 NW18G26   29.68F WCI   9
CENTRAL PARK   CLOUDY    23  16  74 NW6       29.70F HAZE    WCI  16
$$

NYZ005>009-017-018-044>046-055-056-271600-
CENTRAL


CITY           SKY/WX    TMP DP  RH WIND       PRES   REMARKS
FULTON         SUNNY      8  -1  66 N16       29.96R WCI -10
SYRACUSE       PTSUNNY    5  -2  72 NW9       29.94S WCI  -9
ROME           PTSUNNY    8  -3  61 N12       29.93R WCI  -7
ELMIRA         PTSUNNY   18   9  68 N9        29.88R WCI   7
BINGHAMTON     MOSUNNY   12   7  80 NW9       29.76R WCI   0
MONTICELLO     CLOUDY    18  -2  41 N13G18    29.71R WCI   4
$$

NYZ026>034-041>043-271600-
NORTH


CITY           SKY/WX    TMP DP  RH WIND       PRES   REMARKS
WATERTOWN      MOSUNNY    9  -2  61 NE22G35   30.01S WCI -11
FORT DRUM      NOT AVBL
MASSENA        MOSUNNY    7  -4  60 NE20G30   30.10S WCI -13
SARANAC LAKE   PTSUNNY    3  -7  63 NE12      29.83R WCI -13
PLATTSBURGH    CLOUDY     8  -5  55 N21       30.01F WCI -12
$$

NYZ001>004-010>016-019>021-271600-
WEST


CITY           SKY/WX    TMP DP  RH WIND       PRES   REMARKS
NIAGARA FALLS  FLURRIES  16   9  74 NE10      30.02S WCI   4
BUFFALO        LGT SNOW  14   8  77 NE13      30.01R WCI   0
DUNKIRK        LGT SNOW  16  11  80 NE10      30.00S WCI   4
JAMESTOWN      CLOUDY    12   9  85 N7        29.88R WCI   2
WELLSVILLE     FLURRIES  12   8  84 N9        29.83S WCI   0
ROCHESTER      LGT SNOW  14   8  77 NE16      30.02R WCI  -2
PENN YAN       LGT SNOW  15   8  73 NW13      29.92R WCI   1
$$

             KEY
       WCI = WIND CHILL INDEX
       VSB = VISIBILITY
       HX  = HEAT INDEX
$$


USA.gov is the U.S. government's official web portal to all federal, state and local government web resources and services.